NOAA 16 DEB, 42333

Orbit data source: Space-Track

NOAA 16 DEB, 42333 is space debris in SSO originally from a launch on Thu, 21 Sep 2000 UTC launched from the Air Force Western Test Range (AFWTR). Debris objects in space refer to the collection of defunct objects orbiting the Earth. Examples of debris include non-operational satellites, rocket bodies, and fragments generated from explosions, collisions, or faulty payload assembly.

Loading next visibility...
Identifier
42333, 2000-055PZ
Orbit
SSO
Country
Flag of USUS
Related business
Manufacturer
Unknown
Mission
Spacecraft
Bus & Motor
Unknown
Mass
Unknown
Launch date (UTC)
2000-09-21 (26 years ago)
Launch vehicle
Unknown
Launch site
Air Force Western Test Range (AFWTR)
Object type
Payload
Rocket body
Debris
Shape & HBR
Unknown shape, 0.1 m
Radar Cross Section
Small (<0.1 m²)

Expand to show TLE details & history
Last TLE update: 2 days ago

TLE from 2 days ago
0 NOAA 16 DEB
1 42333U 00055PZ  26123.29847962  .00004798  00000-0  19286-2 0  9992
2 42333  98.9676 250.8243 0012985   1.8173 358.3053 14.28568898523591
Epoch: 2026-05-03T07:09Z
TLE epoch observation values (Epoch: 2026-05-03T07:09:48.639Z)
Latitude
0.00006°
Longitude
-77.83241°
Altitude
790.122 km
Speed
7.463 km/s
True Right ascension
16h 43m 17s
True Declination
0° 00' 00"
Sunlit
Object was in full shadow at epoch
Visualization orbit readout
Latitude
Unknown
Longitude
Unknown
Altitude
Unknown
Speed
Unknown
Apparent Right ascension
Unknown
Apparent Declination
Unknown
Sunlit
N/A
Visualization observer readout
Local Sidereal Time
04:47:58
Azimuth
Unknown
Elevation
Unknown
Doppler factor
Unknown
Orbital elements
Apogee altitude
802.991 km
Perigee altitude
784.366 km
Semi-major axis
7,171.815 km
Eccentricity
0.0013
Inclination
98.9676°
RAAN
250.8243°
Arg. of periapsis
1.8173°
True anomaly
358.30089°
Mean anomaly
358.3053°
Eccentric anomaly
358.3031°
Mean motion
3.57355 °/min
Orbital period
100.74 mins
BSTAR
0.0019286
Loading maneuver chart data...
Computing Atmospheric mass density...
Loading historical data...
Loading historical data...
Loading historical data...
Loading historical data...
Loading historical data...
Loading historical data...
Loading historical data...

Documentation

Showing up to 5 results
|